Location: Ab? ar R?sh Ba?r?
(24.1861°N, 32.8847°E)
Time: 21:08:42
(UTC+00:00)

Milstar 3 Cent rocket - Pass Details

Date: 29 May 2022
Orbit: 706 x 5146 km, 28.3° (Epoch: 02 July)

Event Time Altitude Azimuth Distance (km) Brightness Sun altitude
Rises 17:10:02 0° 286° (WNW) 9,150 9.5 -8.8°
Reaches altitude 10° 17:17:25 10° 286° (WNW) 7,633 8.5 -10.3°
Maximum altitude 17:40:41 78° 204° (SSW) 2,505 4.5 -14.8°
Enters shadow 17:48:46 21° 121° (ESE) 3,163 4.5 -16.3°
